CAPE
0 0 0 0 0 0 0 0 0 0 0 0 0 0 0 0 0 0 0 0 0 1 13 61 18 7 8 3 0 0 1 15 0 0 0 0 0 0 0 0 0 0 0
0 0 0 0 0 0 0 0 0 0 0 0 0 0 0 0 0 0 0 0 0 0 0 2 0 2 9 5 1 0 19 9 9 5 14 31 11 0 0 0 0 0 0
0 0 0 0 0 0 0 0 0 0 0 0 0 0 0 0 0 0 0 0 0 0 0 0 0 0 0 0 0 0 1 4 3 2 8 30 18 5 0 0 0 0 0
0 0 0 0 0 0 0 0 0 0 0 0 0 0 0 0 0 0 0 0 0 0 0 0 0 0 0 0 0 0 0 0 2 6 25 18 11 8 3 0 0 0 0
0 0 0 0 0 0 0 0 0 0 0 0 0 0 0 0 0 0 0 0 0 0 0 0 0 0 0 0 0 0 0 0 0 1 10 3 1 8 4 0 0 0 3
0 0 0 0 0 0 0 0 0 0 0 0 0 0 0 0 0 0 0 0 0 0 0 0 0 0 0 0 0 0 0 0 1 4 8 14 13 10 10 8 6 8 2
0 0 0 0 0 0 0 0 0 0 0 0 0 0 0 0 0 0 0 0 0 0 0 0 0 0 0 0 0 0 0 0 0 0 0 3 2 12 14 15 23 27 18
0 0 0 0 0 0 0 0 0 0 0 0 0 0 0 0 0 0 0 0 0 0 0 0 0 0 0 0 0 0 0 0 0 0 0 2 5 7 14 22 23 23 26
0 0 0 0 0 0 0 0 0 0 0 0 0 0 0 0 0 0 0 0 0 0 0 0 0 0 0 0 0 0 0 0 0 0 0 0 2 9 18 24 28 26 28
0 0 0 0 0 0 0 0 0 0 0 0 0 0 0 0 0 0 0 0 0 0 0 0 0 0 0 0 0 0 0 0 0 0 2 7 12 18 21 26 26 28 27
0 0 0 0 0 0 0 0 0 0 0 0 0 0 0 0 0 0 0 0 0 0 0 0 0 0 0 0 0 0 0 0 0 0 0 0 13 25 23 21 25 18 18
0 0 0 0 0 0 0 0 0 0 0 0 0 0 0 0 0 0 0 0 0 0 0 0 0 0 0 0 0 0 0 0 0 0 0 0 0 7 11 6 1 2 5
0 0 0 0 0 0 0 0 0 0 0 0 0 0 0 0 0 0 0 0 0 0 0 0 0 0 0 0 0 0 0 0 0 0 0 0 0 0 0 0 2 3 5
0 0 0 0 0 0 0 0 0 0 0 0 0 0 0 0 0 0 0 0 0 0 0 0 0 0 0 0 0 0 0 0 0 0 0 0 0 0 1 3 4 10 15
0 0 0 0 0 0 0 0 0 0 0 0 0 0 0 0 0 0 0 0 0 0 0 0 0 0 0 0 0 0 0 0 0 0 0 0 0 1 4 10 12 11 15
0 0 0 0 0 0 0 0 0 0 0 0 0 0 0 0 0 0 0 0 0 0 0 0 0 0 0 0 0 0 0 0 0 0 0 0 2 5 4 3 2 7 12
0 0 0 0 0 0 0 0 0 0 0 0 0 0 0 0 0 0 0 0 0 0 0 0 0 0 0 0 0 0 0 0 0 0 0 0 0 0 0 0 0 15 7
0 0 0 0 0 0 0 0 0 0 0 0 0 0 0 0 0 0 0 0 0 0 0 0 0 0 0 0 0 0 0 0 0 0 0 0 0 0 0 0 0 3 2
0 0 0 0 0 0 0 0 0 0 0 0 0 0 0 0 0 0 0 0 0 0 0 0 0 0 0 0 0 0 0 0 0 0 0 0 0 0 0 0 1 0 0
0 0 0 0 0 0 0 0 0 0 0 0 0 0 0 0 0 0 0 0 0 0 0 0 0 0 0 0 0 0 0 0 0 0 0 0 0 0 0 0 0 0 0
0 0 0 0 0 0 0 0 0 0 0 0 0 0 0 0 0 0 0 0 0 0 0 0 0 0 0 0 0 0 0 0 0 0 0 0 0 0 0 0 0 0 0
0 0 0 4 0 0 0 0 0 0 0 0 0 0 0 0 0 0 0 0 0 0 0 0 0 0 0 0 0 0 0 0 1 0 0 0 0 0 0 0 0 0 0
0 0 3 1 0 0 0 0 0 0 0 0 0 0 0 0 0 0 0 0 0 0 0 0 0 0 0 0 0 0 0 0 0 0 0 0 0 0 0 0 0 0 7
0 0 0 0 0 0 0 0 0 0 0 0 0 0 0 0 0 0 0 0 0 0 0 0 0 0 0 0 0 0 0 0 0 0 0 1 0 0 0 0 0 0 0
4 0 0 0 0 0 0 0 0 0 0 0 0 0 0 0 0 0 0 0 0 0 0 0 0 0 0 0 0 0 0 0 0 0 0 0 0 0 0 0 0 0 0
0 0 0 0 0 0 0 0 0 0 0 0 0 0 0 0 0 0 0 0 0 0 0 0 0 0 0 0 0 0 0 0 0 0 0 0 0 0 0 0 0 0 0
CIN
-0 -0 -0 -0 -0 -0 -0 -0 -0 -0 -0 -0 -0 -0 -0 -0 -0 -0 -0 -0 -0 -1 -2 -1 -0 -0 -0 -1 -0 -0 -0 -1 -0 -0 -0 -0 -0 -0 -0 -0 -0 -0 -0
-0 -0 -0 -0 -0 -0 -0 -0 -0 -0 -0 -0 -0 -0 -0 -0 -0 -0 -0 -0 -0 -0 -0 -1 -0 -0 -0 -0 -0 -0 -0 -0 -1 -1 -1 -0 -1 -0 -0 -0 -0 -0 -0
-0 -0 -0 -0 -0 -0 -0 -0 -0 -0 -0 -0 -0 -0 -0 -0 -0 -0 -0 -0 -0 -0 -0 -0 -0 -0 -0 -0 -0 -1 -0 -1 -1 -1 -1 -1 -1 -0 -0 -0 -0 -0 -0
-0 -0 -0 -0 -0 -0 -0 -0 -0 -0 -0 -0 -0 -0 -0 -0 -0 -0 -0 -0 -0 -0 -0 -0 -0 -0 -0 -0 -0 -0 -0 -0 -0 -0 -1 -1 -0 -1 -0 -1 -0 -0 -0
-0 -0 -0 -0 -0 -0 -0 -0 -0 -0 -0 -0 -0 -0 -0 -0 -0 -0 -0 -0 -0 -0 -0 -0 -0 -0 -0 -0 -0 -0 -0 -0 -0 -1 -1 -1 -0 -1 -0 -0 -0 -0 -1
-0 -0 -0 -0 -0 -0 -0 -0 -0 -0 -0 -0 -0 -0 -0 -0 -0 -0 -0 -0 -0 -0 -0 -0 -0 -0 -0 -0 -0 -0 -0 -0 -1 -1 -1 -2 -1 -1 -2 -1 -2 -1 -1
-0 -0 -0 -0 -0 -0 -0 -0 -0 -0 -0 -0 -0 -0 -0 -0 -0 -0 -0 -0 -0 -0 -0 -0 -0 -0 -0 -0 -0 -0 -0 -0 -0 -0 -0 -1 -1 -1 -1 -1 -1 -2 -1
-0 -0 -0 -0 -0 -0 -0 -0 -0 -0 -0 -0 -0 -0 -0 -0 -0 -0 -0 -0 -0 -0 -0 -0 -0 -0 -0 -0 -0 -0 -0 -0 -0 -0 -0 -1 -2 -1 -2 -1 -2 -2 -2
-0 -0 -0 -0 -0 -0 -0 -0 -0 -0 -0 -0 -0 -0 -0 -0 -0 -0 -0 -0 -0 -0 -0 -0 -0 -0 -0 -0 -0 -0 -0 -0 -0 -0 -0 -1 -1 -1 -1 -2 -2 -2 -2
-0 -0 -0 -0 -0 -0 -0 -0 -0 -0 -0 -0 -0 -0 -0 -0 -0 -0 -0 -0 -0 -0 -0 -0 -0 -0 -0 -0 -0 -0 -0 -0 -0 -0 -1 -1 -1 -1 -2 -1 -2 -3 -2
-0 -0 -0 -0 -0 -0 -0 -0 -0 -0 -0 -0 -0 -0 -0 -0 -0 -0 -0 -0 -0 -0 -0 -0 -0 -0 -0 -0 -0 -0 -0 -0 -0 -0 -0 -0 -1 -2 -1 -2 -3 -3 -3
-0 -0 -0 -0 -0 -0 -0 -0 -0 -0 -0 -0 -0 -0 -0 -0 -0 -0 -0 -0 -0 -0 -0 -0 -0 -0 -0 -0 -0 -0 -0 -0 -0 -0 -0 -0 -0 -1 -1 -2 -1 -1 -1
-0 -0 -0 -0 -0 -0 -0 -0 -0 -0 -0 -0 -0 -0 -0 -0 -0 -0 -0 -0 -0 -0 -0 -0 -0 -0 -0 -0 -0 -0 -0 -0 -0 -0 -0 -0 -0 -0 -0 -0 -1 -1 -1
-0 -0 -0 -0 -0 -0 -0 -0 -0 -0 -0 -0 -0 -0 -0 -0 -0 -0 -0 -0 -0 -0 -0 -0 -0 -0 -0 -0 -0 -0 -0 -0 -0 -0 -0 -0 -0 -0 -1 -1 -1 -1 -2
-0 -0 -0 -0 -0 -0 -0 -0 -0 -0 -0 -0 -0 -0 -0 -0 -0 -0 -0 -0 -0 -0 -0 -0 -0 -0 -0 -0 -0 -0 -0 -0 -0 -0 -0 -0 -0 -1 -1 -1 -1 -1 -1
-0 -0 -0 -0 -0 -0 -0 -0 -0 -0 -0 -0 -0 -0 -0 -0 -0 -0 -0 -0 -0 -0 -0 -0 -0 -0 -0 -0 -0 -0 -0 -0 -0 -0 -0 -0 -1 -1 -1 -0 -1 -1 -1
-0 -0 -0 -0 -0 -0 -0 -0 -0 -0 -0 -0 -0 -0 -0 -0 -0 -0 -0 -0 -0 -0 -0 -0 -0 -0 -0 -0 -0 -0 -0 -0 -0 -0 -0 -0 -1 -0 -0 -0 -0 -1 -1
-0 -0 -0 -0 -0 -0 -0 -0 -0 -0 -0 -0 -0 -0 -0 -0 -0 -0 -0 -0 -0 -0 -0 -0 -0 -0 -0 -0 -0 -0 -0 -0 -0 -0 -0 -0 -0 -0 -0 -0 -0 -0 -0
-0 -0 -0 -0 -0 -0 -0 -0 -0 -0 -0 -0 -0 -0 -0 -0 -0 -0 -0 -0 -0 -0 -0 -0 -0 -0 -0 -0 -0 -0 -0 -0 -0 -0 -0 -0 -0 -0 -0 -0 -0 -0 -0
-0 -0 -0 -0 -0 -0 -0 -0 -0 -0 -0 -0 -0 -0 -0 -0 -0 -0 -0 -0 -0 -0 -0 -0 -0 -0 -0 -0 -0 -0 -0 -0 -0 -0 -0 -0 -0 -0 -0 -0 -0 -0 -0
-0 -0 -0 -0 -0 -0 -0 -0 -0 -0 -0 -0 -0 -0 -0 -0 -0 -0 -0 -0 -0 -0 -0 -0 -0 -0 -0 -0 -0 -0 -0 -0 -0 -0 -0 -0 -0 -0 -0 -0 -0 -0 -0
-0 -0 -0 -11 -0 -0 -0 -0 -0 -0 -0 -0 -0 -0 -0 -0 -0 -0 -0 -0 -0 -0 -0 -0 -0 -0 -0 -0 -0 -0 -0 -0 -0 -0 -0 -0 -0 -0 -0 -0 -0 -0 -0
-0 -0 -3 -5 -0 -0 -0 -0 -0 -0 -0 -0 -0 -0 -0 -0 -0 -0 -0 -0 -0 -0 -0 -0 -0 -0 -0 -0 -0 -0 -0 -0 -0 -0 -0 -0 -0 -0 -0 -0 -0 -0 -0
-0 -1 -0 -0 -0 -0 -0 -0 -0 -0 -0 -0 -0 -0 -0 -0 -0 -0 -0 -0 -0 -0 -0 -0 -0 -0 -0 -0 -0 -0 -0 -0 -0 -0 -0 -0 -0 -0 -0 -0 -0 -0 -0
-1 -0 -0 -0 -0 -0 -0 -0 -0 -0 -0 -0 -0 -0 -0 -0 -0 -0 -0 -0 -0 -0 -0 -0 -0 -0 -0 -0 -0 -0 -0 -0 -0 -0 -0 -0 -0 -0 -0 -0 -0 -0 -0
-0 -0 -0 -0 -0 -0 -0 -0 -0 -0 -0 -0 -0 -0 -0 -0 -0 -0 -0 -0 -0 -0 -0 -0 -0 -0 -0 -0 -0 -0 -0 -0 -0 -0 -0 -0 -0 -0 -0 -0 -0 -0 -0
Wind_Speed
10 11 12 14 15 16 17 19 19 20 22 23 25 25 26 27 27 26 26 27 27 25 23 20 20 21 21 21 23 24 24 24 26 27 27 28 30 30 31 32 33 34 34
11 12 12 14 15 16 16 18 19 21 23 23 25 25 25 25 26 27 26 26 26 24 22 21 22 21 21 22 23 25 24 27 28 29 29 29 30 32 33 35 36 36 37
11 11 12 13 14 15 16 18 20 22 22 24 25 24 23 24 25 26 26 25 24 24 24 22 21 22 24 25 25 26 28 29 30 32 33 31 32 33 34 36 38 39 40
10 11 12 13 13 14 17 18 20 22 23 24 24 23 23 24 24 24 24 24 24 24 24 24 24 25 26 27 28 30 30 32 34 35 33 35 37 38 38 39 40 41 42
9 10 11 12 13 15 18 19 22 22 24 24 23 22 22 24 23 23 23 23 24 25 25 25 26 27 28 29 31 32 33 35 37 37 36 38 39 39 42 44 44 43 43
8 9 10 12 13 16 20 21 22 25 25 23 22 22 22 23 23 23 22 24 25 26 27 27 27 28 29 31 32 34 36 37 38 37 38 39 40 43 44 44 45 46 46
8 9 10 13 15 17 18 19 22 23 25 24 23 24 23 23 24 23 23 24 25 27 28 27 28 29 30 31 33 35 36 37 38 38 39 40 42 41 43 45 47 48 49
7 8 11 14 15 17 20 21 22 24 25 25 25 27 27 25 24 23 24 27 27 28 29 29 30 31 31 31 33 36 37 37 38 38 39 40 41 42 43 44 45 46 48
7 9 11 13 15 18 20 22 23 25 27 28 26 25 28 29 30 26 26 28 29 29 31 31 31 31 31 31 34 36 38 38 37 39 41 41 41 42 43 44 45 46 47
7 9 12 14 16 19 21 23 24 26 27 28 27 26 25 26 31 33 28 29 29 31 32 31 31 31 30 32 35 37 37 36 38 39 38 38 39 41 43 45 46 47 48
8 10 13 15 17 19 21 25 26 28 28 27 26 27 27 27 27 30 36 33 31 31 31 29 29 30 32 34 34 35 35 36 38 39 38 38 40 42 45 46 48 48 48
9 11 13 16 17 20 23 24 26 28 25 26 24 24 26 29 31 31 33 34 35 34 30 29 30 30 32 32 33 35 37 38 39 40 41 42 44 44 44 44 46 46 45
11 13 15 18 19 22 22 25 27 25 24 24 24 25 25 26 28 29 31 33 36 33 32 29 28 29 30 32 34 38 40 41 42 42 42 41 41 41 43 43 43 44 43
11 11 13 18 19 20 23 23 23 22 23 24 24 25 27 27 26 26 30 32 37 35 33 32 28 29 29 35 39 41 40 38 38 37 38 39 39 39 43 42 43 42 43
10 12 15 18 18 21 22 21 22 23 23 23 25 25 27 27 25 25 27 29 32 41 40 33 32 28 32 38 38 37 36 36 37 37 36 36 38 41 42 42 43 43 43
11 12 16 18 19 20 20 22 23 23 22 23 25 27 26 25 24 24 27 27 27 31 40 32 31 32 36 35 35 35 35 36 35 35 34 36 39 39 41 42 43 43 42
10 13 15 17 18 19 21 22 24 21 22 24 26 26 25 23 25 25 25 26 28 28 35 33 31 32 33 34 34 33 33 33 32 34 35 38 39 41 43 42 41 39 39
12 15 14 16 17 19 20 25 22 20 22 24 25 25 26 22 24 24 25 27 27 26 29 34 33 32 32 33 32 33 32 32 33 34 36 40 40 39 38 38 37 37 37
14 13 14 16 18 20 25 24 22 22 23 23 24 25 25 23 25 25 25 25 25 27 27 29 32 30 31 32 33 32 31 32 32 34 36 35 35 37 38 38 38 36 34
12 13 15 17 19 24 23 23 25 25 24 24 23 22 23 22 23 24 24 24 25 26 26 26 29 30 31 31 31 33 35 33 35 33 30 32 36 37 37 37 35 33 30
13 13 15 17 24 26 27 28 28 27 26 26 23 21 21 21 22 22 22 24 24 24 24 26 29 30 31 31 32 31 34 35 33 27 29 34 35 35 35 34 32 31 31
15 15 18 22 28 28 29 32 30 28 26 26 23 21 20 19 22 21 20 21 20 22 21 24 27 28 29 28 28 30 33 36 35 27 35 37 33 35 35 34 33 35 37
16 20 25 29 31 31 33 32 31 28 28 25 21 19 19 20 21 20 20 19 19 17 17 21 24 24 25 25 27 29 31 32 32 33 33 34 32 34 34 34 34 32 32
18 23 26 29 31 33 31 31 31 29 27 24 20 17 18 20 21 19 20 20 19 17 17 19 19 18 19 21 22 24 27 29 28 28 26 29 30 34 37 37 30 25 28
26 28 28 29 32 32 32 33 33 30 27 23 18 17 18 20 19 18 19 20 19 17 16 18 15 14 16 19 23 25 29 30 32 33 26 21 28 37 34 31 28 23 28
27 28 29 27 30 34 33 33 31 28 26 23 20 19 18 19 18 17 18 19 19 17 17 18 16 15 16 19 22 22 24 27 30 31 22 28 32 30 31 25 29 31 27
Wind_Direction
30 19 24 26 26 26 26 24 23 19 14 12 7 4 2 1 1 1 359 355 352 352 352 355 356 356 357 356 353 351 353 352 347 342 337 333 327 324 323 322 319 315 312
59 56 45 31 24 27 31 27 22 14 9 8 5 4 2 3 4 1 358 357 355 355 356 354 349 349 349 348 346 345 344 340 339 338 336 332 330 325 321 318 316 314 311
63 50 41 37 37 37 30 20 14 10 8 4 2 3 2 1 1 359 359 358 358 356 353 352 350 346 341 338 338 336 333 331 329 326 323 326 326 324 323 318 313 311 308
58 53 43 42 43 30 22 15 8 3 360 358 358 358 359 0 359 360 359 358 356 352 348 345 341 339 336 334 331 328 326 323 321 319 319 317 315 314 314 315 315 311 307
60 51 45 40 32 23 14 8 3 1 358 356 357 358 357 357 357 357 357 356 354 350 346 342 337 334 331 329 326 324 322 320 317 315 314 312 312 313 310 308 307 307 306
55 52 43 34 24 12 4 4 3 1 359 359 358 355 355 354 353 354 354 352 350 345 340 337 333 330 328 326 324 322 319 318 317 316 314 312 311 310 309 308 307 304 303
53 41 29 19 10 5 5 4 2 1 359 357 352 350 347 347 349 348 347 347 344 342 339 336 332 328 326 325 324 323 322 320 317 315 313 310 311 311 311 309 305 303 301
35 25 15 11 11 7 3 0 358 355 355 355 346 342 340 339 340 341 339 337 336 336 336 334 331 328 325 324 323 322 321 319 316 315 312 310 309 309 309 308 308 308 304
15 11 8 9 7 1 356 355 354 350 347 346 347 342 337 334 334 334 334 333 333 332 331 330 329 329 327 326 324 322 321 319 316 313 310 308 308 308 308 308 307 305 304
360 360 357 356 357 355 353 354 352 348 346 341 345 345 341 337 333 330 334 332 331 329 330 329 329 329 330 328 326 324 324 322 319 315 314 313 310 308 308 306 305 303 301
343 350 348 349 350 351 350 346 346 343 343 343 341 340 338 337 336 330 326 329 330 330 329 328 330 330 330 328 327 326 325 323 319 317 315 312 309 307 306 304 303 302 298
327 336 341 342 344 345 343 342 342 341 342 342 342 340 338 335 333 330 327 327 326 329 331 330 328 330 329 329 328 327 324 322 319 316 313 310 307 306 306 305 302 299 297
311 321 332 336 339 340 342 341 339 341 341 342 339 339 339 336 336 334 332 329 327 330 330 331 330 330 330 330 328 325 322 319 316 314 313 312 311 308 304 302 301 297 295
304 318 328 332 331 334 338 337 339 339 337 337 338 337 337 335 335 334 332 331 329 329 330 329 332 329 331 328 326 324 323 323 322 320 317 315 312 308 300 298 297 296 293
305 315 324 331 332 334 337 337 337 336 337 337 336 336 334 334 335 335 334 334 331 328 328 332 330 331 330 328 328 328 328 326 323 321 319 317 313 303 298 297 296 294 292
309 319 324 330 333 336 340 339 337 337 337 337 338 337 336 337 336 337 335 334 333 330 327 332 331 330 330 331 333 332 330 328 325 322 320 316 310 306 302 298 295 293 292
305 313 323 327 332 334 337 338 335 335 335 336 338 339 339 338 336 336 338 337 334 333 328 332 332 334 334 334 335 335 334 332 330 326 320 315 311 306 301 298 298 299 297
307 316 323 327 330 333 335 333 332 332 331 332 335 337 336 338 336 336 336 335 335 335 333 330 334 336 336 338 337 336 337 335 332 327 321 314 309 308 307 305 302 302 301
309 316 320 325 329 331 330 330 330 330 329 328 329 331 333 334 334 334 334 335 336 336 335 334 334 339 339 340 339 339 339 337 337 331 324 320 318 313 309 308 307 306 303
308 312 318 323 327 331 329 326 324 325 325 325 326 326 329 331 332 333 333 335 336 336 337 336 337 338 340 342 341 340 339 341 337 335 334 328 318 314 312 313 314 313 309
304 312 320 323 327 331 325 324 322 320 320 321 323 324 326 330 332 334 334 335 337 337 338 338 338 340 341 343 343 344 340 341 340 342 338 328 324 319 320 322 322 320 311
314 319 326 327 326 326 326 324 322 320 318 317 315 318 324 328 333 334 332 336 338 338 339 340 340 341 343 345 348 346 343 341 338 346 334 324 329 323 325 328 325 313 301
319 321 323 321 322 326 324 325 325 322 319 317 311 312 319 326 331 334 335 337 339 340 341 341 340 343 346 350 351 349 346 343 339 335 332 326 330 329 332 332 324 316 311
316 321 320 321 321 323 324 325 325 323 319 315 310 309 315 324 329 331 335 336 336 338 339 341 341 345 350 354 355 354 350 346 344 342 342 333 332 329 330 327 328 326 318
317 319 321 322 322 322 324 323 323 321 319 315 311 310 314 320 326 329 332 333 335 334 340 340 343 347 351 354 355 356 352 349 344 339 344 343 338 323 335 338 334 330 321
319 320 320 321 324 323 326 326 324 323 320 316 312 311 312 317 321 325 328 332 332 333 339 342 345 348 352 354 355 358 360 353 347 344 355 339 332 339 341 348 336 324 324